Regional Weather Roundup
Issued by NWS

Home | Current Version | Previous Version | Graphics & Text | Print | Product List | Glossary On
Versions: 1 2 3 4 5 6 7 8 9 10 11 12 13 14 15 16 17 18 19 20 21 22 23 24 25 26 27 28 29 30 31 32 33 34 35 36 37 38 39 40 41 42 43 44 45 46 47 48 49 50
000
ASUS45 KCYS 271610
RWRWY

WYOMING REGIONAL WEATHER ROUNDUP
NATIONAL WEATHER SERVICE CHEYENNE WY
900 AM MST THU NOV 27 2014

NOTE:  "FAIR" INDICATES FEW OR NO CLOUDS BELOW 12,000 FEET
WITH NO SIGNIFICANT WEATHER AND/OR OBSTRUCTIONS TO VISIBILITY.

WYZ001-271700-
YELLOWSTONE NATIONAL PARK

CITY           SKY/WX    TMP DP  RH WIND       PRES   REMARKS
LK YELLOWSTONE   N/A     32  27  81 CALM      30.21S
W YELLOWSTONE  NOT AVBL

$$
WYZ002>013-054>058-071-098>099-271700-
NORTHERN WYOMING

CITY           SKY/WX    TMP DP  RH WIND       PRES   REMARKS
JACKSON        PTSUNNY   39  28  65 SW9       30.22R WCI  33
CODY           PTSUNNY   48  27  43 SW15G28   30.00S
GREYBULL       CLOUDY    23  22  96 MISG      30.07S
WORLAND        PTSUNNY   20  17  88 VRB3      30.07F
SHERIDAN       CLOUDY    24  22  91 S5        29.96F WCI  18
BUFFALO        CLOUDY    41  26  55 S3        30.00S
GILLETTE       CLOUDY    41  29  62 SW12      30.00S
HULETT           N/A    N/A N/A N/A MISG        N/A
NEWCASTLE      FAIR      27  21  80 CALM      30.08R

$$
WYZ014>020-022>026-101>103-271700-
CENTRAL WYOMING

CITY           SKY/WX    TMP DP  RH WIND       PRES   REMARKS
BIG PINEY      CLOUDY   N/A N/A N/A E6        30.32R
PINEDALE       PTSUNNY   21  21 100 NW5       30.32S WCI  15
DUBOIS         FAIR      41  23  48 W25       30.18S
LANDER         PTSUNNY   34  25  69 SE7       30.11F WCI  28
RIVERTON       PTSUNNY   38  25  59 SE5       30.13F WCI  34
CASPER         CLOUDY    42  24  49 SW24G33   30.11F
DOUGLAS        CLOUDY    42  28  57 N9        30.11R

$$
WYZ021-027>030-104>119-271700-
SOUTHERN WYOMING

CITY           SKY/WX    TMP DP  RH WIND       PRES   REMARKS
EVANSTON       MOSUNNY   40  20  44 SW15      30.34R WCI  32
FORT BRIDGER   FAIR      43  22  44 W14       30.34R
ROCK SPRINGS   CLOUDY    37  19  48 NW6       30.32R WCI  32
DIXON          FAIR      34  28  79 CALM      30.39S
RAWLINS        CLOUDY    42  20  41 W18       30.28R
SARATOGA       FAIR      41  19  42 SW9       30.32S
LARAMIE        PTSUNNY   40  18  41 SW18G29   30.25R WCI  31
CHEYENNE       PTSUNNY   47  18  31 W23G36    30.18R
TORRINGTON     CLOUDY    23  21  92 SE5       30.11F WCI  17
PINE BLUFFS    FAIR      34  28  80 S8        30.16F WCI  27

$$



USA.gov is the U.S. government's official web portal to all federal, state and local government web resources and services.